User: anonymous   Login
Location: Prairie State College
(41.5244°N, 87.6382°W)
Time: 13:50:18
(UTC-06:00)
Language:

Cosmos 1943 - Orbit

View from above orbital plane
View from above orbital plane
View from above satellite
View from above satellite

Ground track
Ground track

The orbit data is extracted from the following two-line orbital elements,

1 19119U 88039A   14327.39718237  .00000071  00000-0  61370-4 0  2976
2 19119 071.0052 268.8832 0010407 030.4844 107.3154 14.14971843369573
Epoch (UTC): 23 November 2014 09:31:56
Eccentricity: 0.0010407
inclination: 71.0052°
perigee height: 835 km
apogee height: 850 km
right ascension of ascending node: 268.8832°
argument of perigee: 30.4844°
revolutions per day: 14.14971843
mean anomaly at epoch: 107.3154°
orbit number at epoch: 36957

The dashed part of the orbit path shows where the satellite is in the earth's shadow,  

DLR